Volver al catálogo

CZ-3C DEB

ActivoGTO
NORAD 40853·DEBRIS·🇨🇳 China

Lanzado Feb 24, 2012 desde Xichang Satellite Launch Center

Loading…

TLE

ObsoletoSource: Space-Track

Época: Sep 13, 2026, 07:32 UTC

1 40853U 12008T   26256.31427129 -.00000036  00000-0  53833-2 0  9995
2 40853  21.2672  13.2461 7060096 205.7407  88.2544  2.27937381 99867

Sigue CZ-3C DEB en tiempo real con AllMySat

Download on the App Store